BAW457 LEMD-EGLL

Flight info

Callsign BAW457
Flight time 1h 48m
Altitude 32000
Route SIE N858 DGO N867 NENEM DCT DIDIG UP87 ROXOG
Aircraft A21N/M-SDE2E3FGHIRWXY/LB1

Departure

Time 2026-05-04 17:40
Airport Adolfo Suárez Madrid–Barajas Airport (LEMD)

Arrival

Time 2026-05-04 19:29
Airport London Heathrow Airport (EGLL)
Time Latitude Longitude Altitude Speed Heading
2026-05-04 17:23 40.48993 -3.56878 1986 ft 0 kts 87°
2026-05-04 17:31 40.48993 -3.56879 1988 ft 2 kts 87°
2026-05-04 17:31 40.48987 -3.56978 1986 ft 4 kts 77°
2026-05-04 17:32 40.48954 -3.57006 1986 ft 2 kts 360°
2026-05-04 17:34 40.48962 -3.57006 1986 ft 3 kts 359°
2026-05-04 17:35 40.49058 -3.57136 1987 ft 12 kts 265°
2026-05-04 17:35 40.49080 -3.57330 1986 ft 0 kts
2026-05-04 17:35 40.49084 -3.57332 1987 ft 5 kts 341°
2026-05-04 17:36 40.49149 -3.57430 1987 ft 22 kts 315°
2026-05-04 17:36 40.49261 -3.57463 1986 ft 16 kts 359°
2026-05-04 17:36 40.49316 -3.57462 1989 ft 0 kts 358°
2026-05-04 17:39 40.49323 -3.57463 1988 ft 5 kts 358°
2026-05-04 17:39 40.49610 -3.57465 1986 ft 76 kts
2026-05-04 17:40 40.50387 -3.57468 1986 ft 147 kts 359°
2026-05-04 17:40 40.51616 -3.57473 2222 ft 194 kts 358°
2026-05-04 17:40 40.52988 -3.57489 3234 ft 199 kts 356°
2026-05-04 17:40 40.54395 -3.57521 4142 ft 208 kts 356°
2026-05-04 17:41 40.55885 -3.57432 4820 ft 223 kts
2026-05-04 17:41 40.57418 -3.56828 5454 ft 237 kts 14°
2026-05-04 17:41 40.59030 -3.56162 6106 ft 247 kts 14°
2026-05-04 17:41 40.60691 -3.55482 6892 ft 251 kts 14°
2026-05-04 17:42 40.62366 -3.54806 7799 ft 254 kts 14°
2026-05-04 17:42 40.64094 -3.54239 8626 ft 257 kts
2026-05-04 17:42 40.65883 -3.54035 9445 ft 260 kts
2026-05-04 17:42 40.67677 -3.53894 10237 ft 264 kts 360°
2026-05-04 17:43 40.69526 -3.53746 11037 ft 267 kts
2026-05-04 17:43 40.71394 -3.53589 11832 ft 271 kts
2026-05-04 17:43 40.73287 -3.53425 12612 ft 274 kts
2026-05-04 17:43 40.75194 -3.53266 13351 ft 276 kts 357°
2026-05-04 17:44 40.77131 -3.53420 13895 ft 286 kts 348°
2026-05-04 17:44 40.79177 -3.53799 14214 ft 307 kts 347°
2026-05-04 17:44 40.81366 -3.54228 14495 ft 328 kts 347°
2026-05-04 17:44 40.83705 -3.54674 14792 ft 350 kts 348°
2026-05-04 17:45 40.86170 -3.55131 15236 ft 363 kts 348°
2026-05-04 17:45 40.88686 -3.55595 15914 ft 368 kts 348°
2026-05-04 17:45 40.91223 -3.56065 16621 ft 371 kts 348°
2026-05-04 17:45 40.93798 -3.56540 17298 ft 375 kts 348°
2026-05-04 17:46 40.96401 -3.57018 17962 ft 379 kts 348°
2026-05-04 17:46 40.99020 -3.57497 18596 ft 382 kts 348°
2026-05-04 17:46 41.01667 -3.57981 19217 ft 386 kts 348°
2026-05-04 17:46 41.04312 -3.58469 19811 ft 389 kts 348°
2026-05-04 17:47 41.07009 -3.58966 20391 ft 393 kts 348°
2026-05-04 17:47 41.09728 -3.59468 20959 ft 396 kts 348°
2026-05-04 17:47 41.12469 -3.59976 21526 ft 399 kts 348°
2026-05-04 17:47 41.15228 -3.60489 22079 ft 402 kts 348°
2026-05-04 17:48 41.18038 -3.60810 22607 ft 410 kts 358°
2026-05-04 17:48 41.20885 -3.60270 23128 ft 419 kts 12°
2026-05-04 17:48 41.23611 -3.58802 23628 ft 427 kts 27°
2026-05-04 17:48 41.26035 -3.56495 24134 ft 432 kts 38°
2026-05-04 17:49 41.28417 -3.54032 24632 ft 434 kts 32°
2026-05-04 17:49 41.31010 -3.51961 25095 ft 435 kts 25°
2026-05-04 17:49 41.33769 -3.50289 25535 ft 437 kts 20°
2026-05-04 17:49 41.36593 -3.48747 25957 ft 440 kts 19°
2026-05-04 17:50 41.39411 -3.47221 26359 ft 443 kts 19°
2026-05-04 17:50 41.42277 -3.45660 26756 ft 447 kts 19°
2026-05-04 17:50 41.45171 -3.44073 27135 ft 450 kts 19°
2026-05-04 17:50 41.48078 -3.42456 27502 ft 454 kts 19°
2026-05-04 17:51 41.50999 -3.40833 27852 ft 457 kts 19°
2026-05-04 17:51 41.53943 -3.39204 28210 ft 460 kts 19°
2026-05-04 17:51 41.56911 -3.37565 28545 ft 463 kts 19°
2026-05-04 17:51 41.59889 -3.35914 28884 ft 466 kts 19°
2026-05-04 17:52 41.62899 -3.34249 29199 ft 469 kts 19°
2026-05-04 17:52 41.65927 -3.32605 29518 ft 471 kts 19°
2026-05-04 17:52 41.68972 -3.30943 29911 ft 472 kts 19°
2026-05-04 17:52 41.71973 -3.29281 30293 ft 472 kts 19°
2026-05-04 17:53 41.75009 -3.27595 30697 ft 472 kts 19°
2026-05-04 17:53 41.78045 -3.25909 31096 ft 472 kts 19°
2026-05-04 17:53 41.81083 -3.24220 31459 ft 472 kts 19°
2026-05-04 17:53 41.84119 -3.22535 31802 ft 473 kts 19°
2026-05-04 17:54 41.87162 -3.20836 32048 ft 473 kts 19°
2026-05-04 17:54 41.90203 -3.19140 32082 ft 473 kts 19°
2026-05-04 17:54 41.96293 -3.15739 32060 ft 473 kts 19°
2026-05-04 17:55 42.02380 -3.12337 32053 ft 473 kts 20°
2026-05-04 17:55 42.08407 -3.08953 32051 ft 472 kts 20°
2026-05-04 17:56 42.14465 -3.05554 32048 ft 472 kts 20°
2026-05-04 17:56 42.20530 -3.02137 32058 ft 472 kts 20°
2026-05-04 17:57 42.26590 -2.98706 32057 ft 473 kts 20°
2026-05-04 17:57 42.32662 -2.95278 32059 ft 473 kts 21°
2026-05-04 17:58 42.38742 -2.91832 32062 ft 473 kts 21°
2026-05-04 17:58 42.44897 -2.88723 32063 ft 470 kts
2026-05-04 17:59 42.50257 -2.88242 32041 ft 463 kts 354°
2026-05-04 18:00 42.59925 -2.88824 32012 ft 464 kts 354°
2026-05-04 18:00 42.66379 -2.89171 32009 ft 464 kts 354°
2026-05-04 18:01 42.72825 -2.89504 32018 ft 463 kts 354°
2026-05-04 18:01 42.79272 -2.89841 32019 ft 464 kts 354°
2026-05-04 18:02 42.88912 -2.90347 32020 ft 463 kts 354°
2026-05-04 18:02 42.95352 -2.90679 32021 ft 464 kts 354°
2026-05-04 18:03 43.01819 -2.91016 32019 ft 464 kts 354°
2026-05-04 18:03 43.08281 -2.91358 32021 ft 465 kts 354°
2026-05-04 18:04 43.14748 -2.91696 32023 ft 465 kts 354°
2026-05-04 18:05 43.24447 -2.92220 32016 ft 465 kts 355°
2026-05-04 18:05 43.30860 -2.92738 32014 ft 462 kts 347°
2026-05-04 18:06 43.40251 -2.95586 32019 ft 460 kts 343°
2026-05-04 18:06 43.46483 -2.97548 32020 ft 460 kts 343°
2026-05-04 18:07 43.52657 -2.99485 32027 ft 455 kts 343°
2026-05-04 18:07 43.58838 -3.01433 32031 ft 455 kts 343°
2026-05-04 18:08 43.65017 -3.03370 32030 ft 455 kts 343°
2026-05-04 18:08 43.71210 -3.05237 32030 ft 455 kts 345°
2026-05-04 18:09 43.83592 -3.08801 32030 ft 455 kts 345°
2026-05-04 18:10 43.89790 -3.10601 32030 ft 455 kts 345°
2026-05-04 18:10 43.95993 -3.12391 32030 ft 455 kts 345°
2026-05-04 18:11 44.02203 -3.14122 32028 ft 457 kts 349°
2026-05-04 18:11 44.05402 -3.14330 32027 ft 462 kts
2026-05-04 18:11 44.08580 -3.13615 32032 ft 465 kts 14°
2026-05-04 18:12 44.14711 -3.10932 32032 ft 465 kts 17°
2026-05-04 18:12 44.20883 -3.08182 32029 ft 465 kts 17°
2026-05-04 18:13 44.27069 -3.05476 32030 ft 465 kts 17°
2026-05-04 18:14 44.36346 -3.01426 32028 ft 466 kts 17°
2026-05-04 18:14 44.42526 -2.98716 32021 ft 466 kts 17°
2026-05-04 18:15 44.54898 -2.93266 32021 ft 466 kts 17°
2026-05-04 18:16 44.61034 -2.90550 32018 ft 466 kts 17°
2026-05-04 18:16 44.67221 -2.87812 32002 ft 466 kts 18°
2026-05-04 18:17 44.76519 -2.83680 31990 ft 467 kts 18°
2026-05-04 18:18 44.85771 -2.79554 31989 ft 466 kts 18°
2026-05-04 18:18 44.91960 -2.76786 31990 ft 466 kts 18°
2026-05-04 18:19 45.01245 -2.72623 31991 ft 467 kts 18°
2026-05-04 18:19 45.07448 -2.69834 31982 ft 467 kts 18°
2026-05-04 18:20 45.13649 -2.67037 31979 ft 468 kts 18°
2026-05-04 18:20 45.19864 -2.64232 31982 ft 469 kts 18°
2026-05-04 18:21 45.26079 -2.61419 31979 ft 469 kts 19°
2026-05-04 18:21 45.32302 -2.58591 31973 ft 469 kts 19°
2026-05-04 18:22 45.38515 -2.55768 31970 ft 469 kts 19°
2026-05-04 18:22 45.44701 -2.52945 31971 ft 470 kts 19°
2026-05-04 18:23 45.50933 -2.50099 31970 ft 470 kts 19°
2026-05-04 18:23 45.57171 -2.47243 31971 ft 471 kts 19°
2026-05-04 18:24 45.63426 -2.44370 31961 ft 471 kts 20°
2026-05-04 18:24 45.69671 -2.41495 31961 ft 472 kts 20°
2026-05-04 18:25 45.75934 -2.38607 31961 ft 472 kts 20°
2026-05-04 18:25 45.82203 -2.35713 31961 ft 473 kts 20°
2026-05-04 18:26 45.88436 -2.32820 31961 ft 474 kts 20°
2026-05-04 18:26 45.94711 -2.29899 31953 ft 474 kts 20°
2026-05-04 18:27 46.00984 -2.26971 31950 ft 474 kts 20°
2026-05-04 18:27 46.07361 -2.24448 31965 ft 477 kts 12°
2026-05-04 18:28 46.13907 -2.22869 31969 ft 477 kts 11°
2026-05-04 18:28 46.20449 -2.21290 31953 ft 477 kts 11°
2026-05-04 18:29 46.26955 -2.19698 31951 ft 477 kts 11°
2026-05-04 18:29 46.33542 -2.18084 31949 ft 477 kts 11°
2026-05-04 18:30 46.43311 -2.15685 31955 ft 476 kts 11°
2026-05-04 18:31 46.49832 -2.14077 31960 ft 475 kts 11°
2026-05-04 18:31 46.56347 -2.12467 31960 ft 475 kts 11°
2026-05-04 18:32 46.62857 -2.10852 31961 ft 474 kts 11°
2026-05-04 18:32 46.69350 -2.09239 31961 ft 473 kts 11°
2026-05-04 18:33 46.75841 -2.07621 31961 ft 472 kts 11°
2026-05-04 18:33 46.82316 -2.06003 31961 ft 472 kts 11°
2026-05-04 18:34 46.88729 -2.04404 31961 ft 470 kts 11°
2026-05-04 18:34 46.95180 -2.02791 31962 ft 470 kts 11°
2026-05-04 18:35 47.01619 -2.01173 31960 ft 469 kts 11°
2026-05-04 18:35 47.08051 -1.99582 31960 ft 469 kts 11°
2026-05-04 18:36 47.14502 -1.97987 31960 ft 471 kts 11°
2026-05-04 18:36 47.20958 -1.96385 31954 ft 470 kts 11°
2026-05-04 18:37 47.27399 -1.94777 31954 ft 468 kts 11°
2026-05-04 18:37 47.33830 -1.93223 31957 ft 469 kts
2026-05-04 18:38 47.40317 -1.93403 31962 ft 470 kts 356°
2026-05-04 18:38 47.46838 -1.94138 31960 ft 469 kts 356°
2026-05-04 18:39 47.53355 -1.94845 31961 ft 469 kts 356°
2026-05-04 18:39 47.59851 -1.95534 31960 ft 468 kts 356°
2026-05-04 18:40 47.66308 -1.94938 31959 ft 465 kts 17°
2026-05-04 18:40 47.72395 -1.91928 31961 ft 464 kts 21°
2026-05-04 18:41 47.78486 -1.88766 31959 ft 464 kts 21°
2026-05-04 18:41 47.84590 -1.85632 31961 ft 464 kts 21°
2026-05-04 18:42 47.90699 -1.82512 31961 ft 463 kts 21°
2026-05-04 18:42 47.96800 -1.79389 31959 ft 464 kts 21°
2026-05-04 18:43 48.02902 -1.76254 31961 ft 464 kts 21°
2026-05-04 18:43 48.09204 -1.74182 31959 ft 467 kts
2026-05-04 18:44 48.15707 -1.74235 31962 ft 468 kts 360°
2026-05-04 18:44 48.22214 -1.74363 31960 ft 467 kts
2026-05-04 18:45 48.28665 -1.74447 31959 ft 466 kts
2026-05-04 18:45 48.35160 -1.74530 31961 ft 467 kts
2026-05-04 18:46 48.41651 -1.74607 31970 ft 466 kts
2026-05-04 18:46 48.48137 -1.74691 31967 ft 465 kts
2026-05-04 18:47 48.54612 -1.74771 31971 ft 465 kts
2026-05-04 18:47 48.61091 -1.74843 31970 ft 464 kts
2026-05-04 18:48 48.67546 -1.74930 31970 ft 464 kts
2026-05-04 18:48 48.72911 -1.74991 31970 ft 464 kts
2026-05-04 18:49 48.79362 -1.75062 31972 ft 463 kts
2026-05-04 18:49 48.85797 -1.75136 31972 ft 462 kts
2026-05-04 18:50 48.92220 -1.75163 31988 ft 461 kts
2026-05-04 18:50 48.98638 -1.74925 31983 ft 461 kts
2026-05-04 18:51 49.05040 -1.74675 31990 ft 459 kts
2026-05-04 18:51 49.11381 -1.74433 32007 ft 459 kts
2026-05-04 18:52 49.17759 -1.74188 31995 ft 458 kts
2026-05-04 18:52 49.24128 -1.73945 32000 ft 457 kts
2026-05-04 18:53 49.30481 -1.73697 32006 ft 456 kts
2026-05-04 18:53 49.36826 -1.73452 32003 ft 456 kts
2026-05-04 18:54 49.43165 -1.73210 32001 ft 455 kts
2026-05-04 18:54 49.49492 -1.72965 32001 ft 455 kts
2026-05-04 18:55 49.55812 -1.72720 32001 ft 455 kts
2026-05-04 18:55 49.65292 -1.72106 31999 ft 454 kts
2026-05-04 18:56 49.71559 -1.71575 32001 ft 454 kts
2026-05-04 18:56 49.77862 -1.71044 32001 ft 454 kts
2026-05-04 18:57 49.84192 -1.70505 32000 ft 455 kts
2026-05-04 18:57 49.90516 -1.69969 32006 ft 454 kts
2026-05-04 18:58 49.96827 -1.69431 32010 ft 454 kts
2026-05-04 18:58 50.03021 -1.67772 31967 ft 449 kts 18°
2026-05-04 18:59 50.06043 -1.66542 31828 ft 449 kts
2026-05-04 18:59 50.09160 -1.66357 31753 ft 449 kts 355°
2026-05-04 18:59 50.12245 -1.67098 31582 ft 448 kts 348°
2026-05-04 18:59 50.15278 -1.68152 31134 ft 445 kts 346°
2026-05-04 19:00 50.18244 -1.69254 30581 ft 442 kts 348°
2026-05-04 19:00 50.21291 -1.69655 29971 ft 439 kts
2026-05-04 19:00 50.24289 -1.68873 29357 ft 435 kts 19°
2026-05-04 19:00 50.27014 -1.66965 28756 ft 428 kts 34°
2026-05-04 19:01 50.29303 -1.64063 28147 ft 420 kts 50°
2026-05-04 19:01 50.31099 -1.60508 27561 ft 415 kts 58°
2026-05-04 19:01 50.32704 -1.56780 26968 ft 412 kts 60°
2026-05-04 19:01 50.34253 -1.53026 26361 ft 409 kts 60°
2026-05-04 19:02 50.35779 -1.49268 25758 ft 407 kts 60°
2026-05-04 19:02 50.37286 -1.45532 25176 ft 405 kts 60°
2026-05-04 19:02 50.38782 -1.41806 24684 ft 402 kts 60°
2026-05-04 19:02 50.40261 -1.38109 24295 ft 400 kts 60°
2026-05-04 19:03 50.41731 -1.34417 23970 ft 398 kts 60°
2026-05-04 19:03 50.43183 -1.30760 23660 ft 391 kts 60°
2026-05-04 19:03 50.44742 -1.27314 23343 ft 388 kts 49°
2026-05-04 19:03 50.46866 -1.24689 23040 ft 389 kts 30°
2026-05-04 19:04 50.49365 -1.23084 22734 ft 389 kts 19°
2026-05-04 19:04 50.51960 -1.21908 22440 ft 387 kts 16°
2026-05-04 19:04 50.54529 -1.20843 22143 ft 385 kts 16°
2026-05-04 19:04 50.57116 -1.19789 21839 ft 383 kts 15°
2026-05-04 19:05 50.59683 -1.18744 21543 ft 380 kts 16°
2026-05-04 19:05 50.62203 -1.17573 20911 ft 379 kts 19°
2026-05-04 19:05 50.64743 -1.16307 20179 ft 382 kts 19°
2026-05-04 19:05 50.67256 -1.15043 19717 ft 377 kts 19°
2026-05-04 19:06 50.69744 -1.13797 19171 ft 374 kts 19°
2026-05-04 19:06 50.72203 -1.12577 18679 ft 369 kts 19°
2026-05-04 19:06 50.74639 -1.11373 17970 ft 364 kts 19°
2026-05-04 19:06 50.77043 -1.10182 17326 ft 358 kts 19°
2026-05-04 19:07 50.79405 -1.09008 16636 ft 354 kts 18°
2026-05-04 19:07 50.81725 -1.07852 16145 ft 344 kts 18°
2026-05-04 19:07 50.83967 -1.06731 15751 ft 332 kts 18°
2026-05-04 19:07 50.86147 -1.05642 15416 ft 327 kts 18°
2026-05-04 19:08 50.88315 -1.04561 15073 ft 325 kts 18°
2026-05-04 19:08 50.90443 -1.03503 14705 ft 325 kts 18°
2026-05-04 19:08 50.92598 -1.02431 14323 ft 325 kts 18°
2026-05-04 19:08 50.94772 -1.01348 13954 ft 325 kts 18°
2026-05-04 19:09 50.96910 -1.00278 13606 ft 324 kts 18°
2026-05-04 19:09 50.99053 -0.99182 13264 ft 324 kts 20°
2026-05-04 19:09 51.01031 -0.97516 12911 ft 322 kts 36°
2026-05-04 19:09 51.02863 -0.95483 12568 ft 320 kts 37°
2026-05-04 19:10 51.04444 -0.93046 12263 ft 313 kts 49°
2026-05-04 19:10 51.05826 -0.90430 12032 ft 305 kts 50°
2026-05-04 19:10 51.07174 -0.87872 11875 ft 300 kts 50°
2026-05-04 19:10 51.08515 -0.85343 11693 ft 298 kts 50°
2026-05-04 19:11 51.09837 -0.82825 11309 ft 296 kts 50°
2026-05-04 19:11 51.11154 -0.80311 10911 ft 295 kts 50°
2026-05-04 19:11 51.12463 -0.77803 10502 ft 293 kts 50°
2026-05-04 19:11 51.13757 -0.75320 10078 ft 291 kts 50°
2026-05-04 19:12 51.15050 -0.72843 9675 ft 289 kts 50°
2026-05-04 19:12 51.17611 -0.67933 9008 ft 286 kts 49°
2026-05-04 19:12 51.18923 -0.65553 8678 ft 285 kts 48°
2026-05-04 19:13 51.20225 -0.63237 8354 ft 283 kts 48°
2026-05-04 19:13 51.21532 -0.60903 8067 ft 282 kts 48°
2026-05-04 19:13 51.22829 -0.58578 7992 ft 281 kts 48°
2026-05-04 19:13 51.24133 -0.56235 7990 ft 281 kts 48°
2026-05-04 19:14 51.25431 -0.53897 8004 ft 281 kts 48°
2026-05-04 19:14 51.26727 -0.51562 8013 ft 281 kts 48°
2026-05-04 19:14 51.28024 -0.49222 8019 ft 281 kts 48°
2026-05-04 19:14 51.29318 -0.46878 8023 ft 281 kts 48°
2026-05-04 19:15 51.30509 -0.44412 8016 ft 282 kts 63°
2026-05-04 19:15 51.31157 -0.41469 8032 ft 282 kts 74°
2026-05-04 19:15 51.31659 -0.38429 8030 ft 282 kts 75°
2026-05-04 19:15 51.32177 -0.35394 8020 ft 282 kts 70°
2026-05-04 19:16 51.33191 -0.32748 8012 ft 281 kts 45°
2026-05-04 19:16 51.34773 -0.31019 7997 ft 280 kts 21°
2026-05-04 19:16 51.36696 -0.30450 7853 ft 279 kts 357°
2026-05-04 19:16 51.38561 -0.31194 7676 ft 278 kts 333°
2026-05-04 19:17 51.40046 -0.33075 7472 ft 277 kts 309°
2026-05-04 19:17 51.40927 -0.35826 7222 ft 277 kts 284°
2026-05-04 19:17 51.41140 -0.38857 7028 ft 277 kts 272°
2026-05-04 19:17 51.41172 -0.41935 6988 ft 275 kts 271°
2026-05-04 19:18 51.41183 -0.44920 6990 ft 259 kts 271°
2026-05-04 19:18 51.41188 -0.47711 6992 ft 245 kts 271°
2026-05-04 19:18 51.41192 -0.50428 7005 ft 244 kts 271°
2026-05-04 19:18 51.41195 -0.53142 7014 ft 244 kts 271°
2026-05-04 19:19 51.41198 -0.55863 7018 ft 244 kts 271°
2026-05-04 19:19 51.41201 -0.58567 7019 ft 244 kts 271°
2026-05-04 19:19 51.41203 -0.61290 7020 ft 244 kts 271°
2026-05-04 19:19 51.41205 -0.64001 7019 ft 243 kts 271°
2026-05-04 19:20 51.41188 -0.66723 7015 ft 244 kts 266°
2026-05-04 19:20 51.40958 -0.69411 7019 ft 244 kts 261°
2026-05-04 19:20 51.40670 -0.72089 6933 ft 244 kts 261°
2026-05-04 19:20 51.40376 -0.74760 6696 ft 243 kts 261°
2026-05-04 19:21 51.40082 -0.77415 6440 ft 242 kts 261°
2026-05-04 19:21 51.39788 -0.80027 6179 ft 241 kts 261°
2026-05-04 19:21 51.39490 -0.82667 5909 ft 240 kts 261°
2026-05-04 19:21 51.39229 -0.85306 5633 ft 239 kts 270°
2026-05-04 19:22 51.39577 -0.87851 5351 ft 234 kts 299°
2026-05-04 19:22 51.40629 -0.89728 5081 ft 221 kts 328°
2026-05-04 19:22 51.42021 -0.90401 4903 ft 206 kts 358°
2026-05-04 19:22 51.43357 -0.89836 4629 ft 197 kts 31°
2026-05-04 19:23 51.44244 -0.88236 4358 ft 192 kts 58°
2026-05-04 19:23 51.44875 -0.86379 4095 ft 187 kts 60°
2026-05-04 19:23 51.45481 -0.84555 3973 ft 185 kts 61°
2026-05-04 19:23 51.46087 -0.82733 3967 ft 185 kts 60°
2026-05-04 19:24 51.46688 -0.80930 3975 ft 185 kts 60°
2026-05-04 19:24 51.47288 -0.79103 3978 ft 185 kts 64°
2026-05-04 19:24 51.47607 -0.77097 3904 ft 187 kts 81°
2026-05-04 19:24 51.47675 -0.75018 3509 ft 187 kts 89°
2026-05-04 19:25 51.47669 -0.72926 3084 ft 187 kts 88°
2026-05-04 19:25 51.47673 -0.70856 2786 ft 196 kts 87°
2026-05-04 19:25 51.47679 -0.68697 2525 ft 188 kts 88°
2026-05-04 19:25 51.47687 -0.66670 2281 ft 177 kts 88°
2026-05-04 19:26 51.47693 -0.64714 2094 ft 170 kts 88°
2026-05-04 19:26 51.47701 -0.62871 1897 ft 161 kts 88°
2026-05-04 19:26 51.47707 -0.61090 1680 ft 160 kts 88°
2026-05-04 19:26 51.47712 -0.59440 1432 ft 136 kts 88°
2026-05-04 19:27 51.47711 -0.57959 1185 ft 132 kts 88°
2026-05-04 19:27 51.47710 -0.56459 1070 ft 133 kts 88°
2026-05-04 19:27 51.47721 -0.54989 852 ft 132 kts 88°
2026-05-04 19:27 51.47730 -0.53513 717 ft 132 kts 89°
2026-05-04 19:28 51.47729 -0.52046 532 ft 131 kts 88°
2026-05-04 19:28 51.47736 -0.50602 337 ft 131 kts 89°
2026-05-04 19:28 51.47744 -0.49127 179 ft 131 kts 89°
2026-05-04 19:28 51.47751 -0.47688 92 ft 122 kts 88°
2026-05-04 19:29 51.47755 -0.46607 98 ft 68 kts 90°
2026-05-04 19:29 51.47740 -0.46178 96 ft 24 kts 132°